DECAYED

CZ-6A DEB, 61830 (Decayed)

Orbit data source: Space-Track

CZ-6A DEB, 61830 was space debris in LEO originally from a launch on Tue, 06 Aug 2024 UTC launched from the Taiyaun Space Center, China (TSC). Debris objects in space refer to the collection of defunct objects orbiting the Earth. Examples of debris include non-operational satellites, rocket bodies, and fragments generated from explosions, collisions, or faulty payload assembly.

Not visible in the next 10 days
Identifier
61830, 2024-140ACW
Orbit
Decayed
Country
Flag of CNCN / PRC
Related business
Manufacturer
SAST
Mission
Decayed spacecraft
Bus & Motor
Unknown
Mass
Unknown
Launch date (UTC)
2024-08-06 (1 year ago)
Launch vehicle
Unknown
Launch site
Taiyaun Space Center, China (TSC)
Object type
Payload
Rocket body
Debris
Shape & HBR
Unknown shape, 1.1 m
Radar Cross Section
Small (<0.1 m²)

Expand to show TLE details & history
Last TLE update: 8 months ago

TLE from 8 months ago
0 CZ-6A DEB
1 61830U 24140ACW 25094.54290611  .26640354 -10338-5  13563-1 0  9997
2 61830  89.2831 331.4897 0016350 211.8043 148.2271 16.20288426 30704
Epoch: 2025-04-04T13:01Z
TLE epoch observation values (Epoch: 2025-04-04T13:01:47.087Z)
Latitude
-0.00005°
Longitude
-57.05638°
Altitude
231.281 km
Speed
7.762 km/s
True Right ascension
22h 05m 57s
True Declination
0° 00' 00"
Sunlit
Object was in daylight at epoch
Visualization orbit readout
Latitude
Unknown
Longitude
Unknown
Altitude
Unknown
Speed
Unknown
Apparent Right ascension
Unknown
Apparent Declination
Unknown
Sunlit
N/A
Visualization observer readout
Local Sidereal Time
01:14:57
Azimuth
Unknown
Elevation
Unknown
Doppler factor
Unknown
Orbital elements
Apogee altitude
226.218 km
Perigee altitude
204.657 km
Semi-major axis
6,593.575 km
Eccentricity
0.00164
Inclination
89.2831°
RAAN
331.4897°
Arg. of periapsis
211.8043°
True anomaly
148.32558°
Mean anomaly
148.2271°
Eccentric anomaly
148.27636°
Mean motion
4.05379 °/min
Orbital period
88.81 mins
BSTAR
0.013563
Loading maneuver chart data...
Computing Atmospheric mass density...

Documentation

Showing up to 5 results
|